CAPE
2025 2220 2322 2120 2396 2406 2240 2154 1982 2104 2054 2025 1843 1827 1815 1652 1263 1530 1765 2044 1909 1668 2021 2088 1532 1327 1372 1502 1934 2166 1804 1328 1376 1364 1401 1551 1880 2522 2004 1500 1570 1264 1381 1456 1517 1654 1831 1876 1733 1702 1791 1833 1729 1649 1648 1637 1743 1597 1584 1585 1698 1354 1618 1603 1502 1362 1402 1357 1316 1310 1404 1477 1438 1523 1634 1620 1556 1596 1624 1533 1744 1602 1595 1656 1794
1842 2173 2254 1800 2092 2230 2199 2296 2315 2054 1959 1789 1645 1533 1602 1251 1218 1425 1836 1974 1745 2110 1864 1414 1219 1159 1190 1334 1462 1964 1820 1473 1315 1352 1437 1566 1905 2540 2364 1841 1337 1557 1244 1437 1582 1589 1888 1831 1814 1629 1682 1780 1782 1678 1664 1673 1635 1674 1705 1671 1675 1639 1686 1437 1480 1550 1360 1494 1280 1382 1269 1415 1497 1451 1565 1619 1663 1767 1752 1898 1971 1838 1802 1832 1831
1698 2036 2172 1902 1868 2131 2148 2207 2346 2319 2161 1831 1485 1626 1294 1151 1129 1496 1928 2164 2061 1775 1790 1557 1353 1258 1453 1046 949 1544 1719 1720 1564 1313 1382 1658 1943 2447 2741 2251 1934 1966 1431 1245 1594 1679 1942 1778 1670 1720 1657 1649 1622 1657 1693 1669 1650 1650 1694 1653 1646 1678 1478 1482 1514 1483 1445 1500 1565 1567 1646 1499 1438 1525 1630 1745 1745 1839 1976 2036 1964 1869 1871 1771 1746
1566 1831 2085 2002 2021 2108 2160 2146 2125 2056 1857 1383 1265 1853 1445 1259 1681 2091 2275 2145 1852 1497 1609 1188 1305 1243 1026 776 911 1261 1489 1666 1734 1438 1477 1655 1971 2332 2484 2495 1782 1749 1574 1712 1892 1858 1927 1430 1714 1642 1528 1679 1649 1631 1598 1702 1662 1671 1689 1642 1699 1692 1478 1616 1639 1625 1717 1531 1698 1716 1529 1584 1595 1563 1695 1887 1838 1887 1838 1885 1826 1790 1752 1851 1827
1511 1804 2634 2133 2193 2114 2084 1979 1735 1796 1908 1720 1454 1744 1673 1752 1430 2667 2201 1780 1317 1291 1831 1344 1301 1285 965 667 824 1064 1317 1509 1578 1376 1503 1647 1860 2240 2343 2633 2493 1825 1754 1975 1941 2019 1752 1810 2059 1884 1688 1726 1728 1736 1726 1730 1719 1720 1736 1714 1681 1672 1682 1740 1806 1586 1755 1670 1605 1558 1715 1513 1461 1766 1715 1645 1806 1716 1797 1755 1653 1796 1796 1735 1740
1421 1700 2188 2114 2177 2093 1961 1837 1903 1992 1926 1798 1598 1577 1618 1396 1521 2163 2664 2138 1431 1252 1216 1047 1090 616 468 303 652 938 1156 1326 1374 1395 1547 1649 1901 2115 2298 2555 2470 2290 2090 1829 1934 1776 1802 1850 1805 1936 1935 1973 1789 1612 1753 1790 1759 1723 1719 1663 1535 1677 1665 1661 1622 1692 1560 1719 1748 1778 1642 1678 1675 1700 1798 1718 1712 1700 1686 1642 1654 1689 1686 1624 1636
1421 1621 1929 2030 2043 1999 1892 1787 1866 2015 1990 1791 1351 1202 1283 1371 1855 1913 1624 1592 1748 1932 1624 1086 930 385 424 298 633 790 1105 1180 1240 1397 1527 1658 1901 2083 2147 2400 2317 2264 2336 2247 2332 2130 1978 1825 1961 1842 2063 2000 2011 1924 1775 1767 1821 1797 1741 1738 1499 1643 1706 1551 1500 1683 1492 1397 1584 1640 1685 1628 1626 1666 1732 1685 1658 1625 1639 1509 1547 1406 1614 1692 1976
1596 1516 1860 1903 1979 1926 1758 1686 1839 1977 2065 1906 1528 1319 1534 1698 2037 1860 1759 1650 2509 1910 1597 1227 374 351 220 209 736 1176 936 1154 1317 1386 1496 1652 1830 1969 2018 2107 2162 2191 2291 2149 2241 2310 2071 2027 1940 2021 1976 2036 2026 1990 1984 1787 1817 1616 1467 1455 1666 1600 1639 1574 1535 1667 1516 1738 1873 1518 1567 1661 1565 1661 1698 1540 1504 1465 1340 1389 1559 1458 1211 1798 1828
1658 1477 1766 1804 1928 1934 1761 1553 1982 1856 1973 1799 1623 1738 1758 2014 1930 2402 1681 1632 2022 1920 1255 773 142 13 102 364 715 980 828 1157 1309 1434 1494 1585 1685 1882 1987 2000 2146 2217 2304 2034 1988 2092 2227 2150 2052 2067 2067 2013 1970 1950 2024 2082 1942 1641 1361 1604 1685 1755 1700 1573 1489 1446 1624 1706 1728 1728 1716 1682 1659 1587 1591 1488 1307 1510 1474 1450 1720 1735 1624 1620 1634
1658 1414 1614 1699 1820 1804 1654 1639 2042 1786 1743 1626 1692 1796 1786 1814 1941 2048 2444 2795 2404 1807 1234 640 22 28 290 460 560 605 739 1111 1570 1845 1454 1486 1651 1791 1854 1833 1965 2080 2051 1844 1672 1831 2069 2108 2036 2116 1990 2027 2050 2046 1948 1991 1721 1621 1520 1691 1494 1647 1734 1432 1365 1497 1448 1572 1675 1642 1632 1603 1609 1558 1543 1570 1482 1532 1504 1522 1594 1608 1461 1559 1596
1588 1477 1488 1804 1747 1616 1608 1928 2174 1843 1710 1907 2047 2316 2263 1916 1812 1853 2558 2348 2052 2016 956 86 1 171 169 298 426 465 647 1534 1593 1226 1413 1463 1663 1923 1685 1642 1681 1858 1913 1818 1730 1636 1835 2052 2143 2225 2212 2077 2212 2133 2012 1862 1653 1691 1620 1691 1787 1700 1699 1589 1524 1587 1577 1609 1591 1641 1585 1427 1487 1497 1469 1503 1474 1565 1546 1590 1451 1022 997 1001 1127
1666 1520 1428 1680 1647 1634 1767 2093 2241 1971 1888 2000 2165 2404 2394 1965 1798 1848 2058 2280 1688 455 65 11 0 16 394 142 288 297 1115 936 838 934 1252 1326 1732 2138 1768 1635 1721 1596 1624 1632 1598 1525 1664 1798 2107 1976 2043 2002 2058 2174 2069 1880 1913 1934 1867 1848 1920 1794 1653 1539 1625 1665 1649 1440 1329 1350 1490 1479 1393 1411 1373 1400 1464 1495 1410 1208 784 657 818 1012 1040
1850 1639 1453 1966 1699 1688 1849 2200 2245 2114 2008 2056 2125 2393 2260 1693 1669 2813 1942 1460 1101 0 0 0 0 1 0 0 8 433 1472 489 487 640 767 900 1352 1852 1708 1692 1550 1394 1430 1383 1483 1508 1482 1618 1805 1860 1941 1988 1965 2017 1986 1938 1950 1924 1872 1952 1684 1602 1673 1609 1525 1434 1573 1480 1316 1273 1291 1290 1358 1266 1214 1301 1382 1355 918 598 509 690 727 661 730
2098 1716 1556 1610 1676 1681 1926 2173 2294 2275 2074 2074 2199 2349 2366 1540 1653 1949 2037 1550 899 95 0 0 0 1 21 24 72 6 773 29 201 171 246 516 939 1344 1300 1492 1451 1378 1375 1348 1395 1395 1370 1428 1502 1563 1704 1699 1686 1861 2244 2091 2176 2103 2014 1989 1712 1594 1592 1643 1301 1447 1422 1376 1536 1319 1334 1276 1301 1348 1317 1296 1378 964 663 211 414 486 615 567 503
1995 1936 1590 1513 1618 1617 1922 2007 2243 2333 2240 2193 2214 2209 2216 1746 1682 1696 1631 1637 1475 300 0 0 0 0 0 26 8 28 180 0 0 14 19 235 650 924 1107 1191 1307 1328 1328 1401 1321 1248 1230 1315 1346 1434 1543 1545 1674 1666 1804 2064 2077 2084 2010 1970 2024 1887 1612 1501 1426 1373 1534 1466 1310 1282 1258 1221 1266 1031 1048 1002 1006 630 253 209 261 330 373 518 520
1956 1948 1810 1596 1558 1570 1802 1992 2120 2251 2223 2125 1951 1979 2150 2064 1641 1716 1402 1519 999 27 493 0 0 0 0 6 0 2 0 4 1 0 0 92 387 698 894 971 1012 1079 1180 1315 1324 1214 1173 1211 1298 1275 1362 1439 1513 1525 1547 1575 1889 2177 1830 1880 2025 1820 1704 1758 1522 1337 1485 1359 1400 1242 1078 1028 984 871 872 847 642 384 204 184 232 239 272 337 406
1970 1961 2005 1700 1607 1661 1746 1990 2051 2125 2145 2026 1891 1862 1899 1821 1640 1907 1593 1352 900 188 211 0 0 244 0 0 0 0 0 0 0 5 0 7 146 418 834 1077 924 1036 1327 1263 1158 1200 1256 1300 1257 1221 1242 1291 1362 1422 1419 1494 1686 1960 2149 2355 2146 1904 1621 1636 1676 1385 1417 1365 922 1357 1235 958 736 743 620 518 374 352 217 163 158 268 315 325 458
1819 1970 1964 1886 1782 1776 1790 1881 2021 2059 2052 1963 1820 1762 1834 1826 1557 1793 1805 1550 976 176 0 702 23 145 0 0 0 0 0 0 0 0 0 260 69 159 518 788 885 1074 1124 1121 1088 1152 1202 1236 1184 1190 1197 1188 1185 1228 1288 1261 1367 1505 1545 1523 2040 2046 1750 1581 1653 1110 1055 1141 1107 1334 1227 858 841 815 468 380 342 260 243 219 318 361 478 594 681
1737 1873 1937 1963 1878 1851 1826 1789 1858 1904 2001 1955 1834 1712 1838 1869 1576 1573 1819 1832 1331 480 0 0 5 319 216 225 1077 398 0 0 0 0 0 2 0 4 183 364 542 744 932 1001 1032 1065 1101 1143 1316 1234 1189 1095 1080 1105 1152 1221 1470 1592 1700 1810 1853 1888 1785 1566 1634 1403 1132 1145 1187 1220 818 751 709 676 415 236 205 397 443 459 535 582 620 744 878
1752 1749 1911 1946 1933 1863 1839 1800 1799 1808 1962 1831 1741 1643 1724 1808 1873 1626 1799 1769 1693 1229 297 0 0 0 400 111 224 78 0 0 0 0 3 0 4 0 0 26 198 368 682 857 967 1055 1129 1121 1088 1204 1245 1165 1112 1127 1171 1116 1119 1237 1681 1737 1718 1568 1773 1575 1629 1463 1031 1115 1084 686 506 403 432 440 284 191 80 157 513 794 846 816 782 776 782
1811 1785 1798 1900 2230 1898 1850 1831 1807 1792 2210 1952 1731 1636 1732 1920 2130 1913 1858 1847 1780 1663 1304 340 0 0 21 0 0 0 0 0 0 0 0 0 0 0 10 0 0 31 77 333 609 771 912 992 992 1394 1463 1502 1245 1135 1060 1155 1144 1017 1284 1388 1627 1563 1592 1532 1482 1518 1148 975 904 507 297 284 349 402 320 288 352 532 826 934 867 798 692 643 668
1841 1853 1826 1809 2049 2046 1913 1915 1930 1891 2343 2123 1928 1829 1789 1917 2059 2080 2053 2005 1905 1832 1679 1361 459 175 0 0 0 0 0 0 0 0 0 0 0 0 0 6 103 296 91 121 271 386 533 642 751 865 1188 1394 1296 1150 1014 1024 1124 1078 1096 1383 1636 1617 1675 1654 1532 1452 1263 1059 792 628 479 346 480 540 497 596 765 794 839 839 721 614 657 816 957
1792 1847 1850 1817 1896 2079 2017 2020 2116 2372 2581 2334 2177 2052 1980 1987 2086 2119 2121 2060 2016 1950 1850 1748 1552 1348 466 0 0 0 17 1 0 0 0 0 0 0 0 0 37 126 219 13 216 243 428 530 552 600 791 991 1199 1089 982 945 1025 1162 1184 1247 1450 1597 1736 1739 1607 1407 1250 1058 843 794 631 573 608 596 666 754 836 796 724 670 654 860 1081 971 714
1714 1802 1845 1831 1891 2024 2149 2119 2306 2381 2454 2464 2351 2202 2135 2113 2163 2218 2164 2100 2046 1960 1955 1955 1758 1534 1354 588 0 0 0 0 0 0 0 0 0 0 0 0 0 0 0 0 0 56 235 369 443 506 575 705 984 1050 917 922 1004 1083 1459 1546 1433 1425 1674 1758 1622 1445 1198 1056 899 909 810 664 664 722 789 794 868 862 811 914 1220 1149 796 593 518
1663 1780 1788 1824 1904 1955 2059 2080 2174 2377 2508 2498 2486 2281 2255 2282 2315 2354 2191 2109 2048 1979 1962 1960 1865 1646 1496 1237 604 0 0 0 0 0 0 0 0 0 0 0 0 0 0 0 3 6 63 224 444 417 424 579 739 924 914 807 811 894 1331 1566 1267 1234 1404 1592 1602 1354 1100 896 830 868 760 707 826 906 853 850 842 843 903 937 944 809 476 423 633
1628 1705 1793 1813 1921 1956 2086 2102 2090 2251 2476 2539 2559 2443 2430 2432 2455 2449 2329 2121 2022 1987 2007 2056 1993 1801 1532 1428 1190 0 0 0 0 0 0 0 0 0 0 0 0 0 0 0 0 14 93 97 181 416 391 400 488 668 734 658 670 741 1002 1249 1082 904 1047 1265 1433 1422 1232 945 750 704 710 730 870 878 904 856 976 969 1006 1023 838 596 635 668 721
1552 1658 1728 1807 1894 1928 2004 2128 2131 2168 2436 2567 2646 2548 2509 2528 2515 2490 2425 2318 2238 2054 1999 2008 1998 1833 1559 1432 1382 1068 37 0 0 0 0 0 0 0 0 0 2 1 7 2 0 0 5 87 129 161 295 451 402 518 624 592 574 622 859 1152 1291 777 610 822 1137 1213 1174 1049 824 686 633 652 710 839 838 863 855 826 892 680 711 775 812 846 774
1446 1531 1630 1757 1804 1865 2008 2161 2206 2237 2359 2518 2642 2615 2563 2561 2542 2532 2522 2493 2524 2378 2033 1917 1889 1804 1655 1543 1494 1391 941 376 9 2 0 0 0 0 0 2 12 57 0 2 1 42 0 58 63 132 300 338 420 460 496 535 575 612 911 1034 982 882 575 476 674 901 951 890 802 683 596 561 579 634 752 754 702 657 628 770 1134 1097 884 820 747
1321 1501 1554 1646 1729 1840 1872 2054 2196 2333 2410 2504 2570 2637 2572 2573 2571 2590 2624 2660 2688 2611 2277 2002 1945 1913 1876 1821 1716 1617 1406 922 352 39 9 8 0 0 0 9 14 35 86 40 58 48 62 0 94 306 128 316 357 442 494 659 622 670 774 856 856 812 494 214 231 444 640 664 614 530 448 401 359 348 445 429 491 607 684 653 788 997 920 864 644
1238 1465 1495 1555 1658 2076 1825 1941 2107 2273 2465 2535 2552 2567 2565 2574 2616 2643 2712 2803 2849 2746 2495 2298 2174 2046 2045 2043 1974 1796 1636 1401 911 496 369 80 29 0 0 3 19 107 114 101 237 16 131 4 0 144 47 175 244 353 333 460 492 684 775 628 544 613 370 133 16 22 142 294 291 202 138 99 47 29 56 121 198 292 429 597 756 790 922 830 644
1232 1399 1461 1478 1564 1773 1839 1881 1970 2170 2324 2508 2598 2503 2521 2566 2598 2654 2702 2842 2886 2855 2688 2482 2431 2392 2289 2182 2064 1887 1718 1668 1523 1040 642 512 54 5 0 0 0 22 73 66 60 378 12 253 75 0 37 94 39 155 254 318 416 535 720 674 525 329 282 319 42 0 0 0 4 0 0 0 0 0 0 0 2 67 189 344 481 571 628 642 628
972 1214 1405 1452 1512 1612 1764 1826 1892 2056 2194 2340 2503 2611 2498 2526 2542 2580 2625 2710 2754 2699 2722 2654 2576 2553 2508 2414 2347 2300 2147 1948 1849 1692 1141 661 226 4 6 1 1 0 27 25 32 210 62 32 111 94 2 21 90 145 250 271 292 517 674 660 634 449 452 506 238 21 0 0 0 0 0 0 0 0 0 0 1 27 120 274 334 420 409 358 354
900 1059 1297 1412 1468 1546 1642 1768 1821 1931 2110 2228 2347 2531 2499 2507 2511 2518 2509 2519 2528 2545 2632 2648 2658 2654 2655 2634 2588 2566 2493 2422 2266 2099 1830 1206 678 214 4 4 12 6 0 2 57 122 167 0 3 37 60 0 56 110 198 241 296 414 590 650 646 519 496 524 502 212 21 0 0 0 0 0 0 0 0 0 0 8 76 160 229 238 204 202 216
937 972 1160 1321 1425 1472 1546 1636 1747 1851 1968 2122 2219 2386 2550 2511 2547 2456 2464 2435 2417 2490 2490 2528 2559 2614 2680 2669 2666 2682 2631 2599 2506 2326 2194 2018 1433 815 576 3 14 17 0 64 32 97 210 84 27 137 87 37 185 241 149 213 230 336 367 537 540 517 526 503 512 501 139 17 0 0 0 0 0 0 0 0 0 0 7 50 83 66 69 99 76
954 926 1046 1181 1339 1412 1459 1537 1618 1710 1836 2006 2160 2302 2415 2507 2566 2517 2492 2473 2438 2410 2399 2417 2443 2471 2529 2584 2653 2709 2682 2665 2615 2525 2324 2224 2138 1739 1039 408 139 125 33 10 121 159 141 252 162 105 151 244 151 323 244 242 298 337 307 323 317 411 458 481 457 418 212 47 0 0 0 0 0 0 0 0 0 0 0 0 0 1 1 1 0
966 1085 1082 1154 1282 1370 1412 1493 1503 1604 1704 1844 2008 2174 2331 2413 2476 2526 2561 2572 2546 2486 2454 2442 2360 2359 2388 2454 2539 2638 2632 2613 2552 2569 2432 2313 2250 2235 2057 1443 746 396 210 23 18 217 358 326 329 544 592 542 453 259 215 228 197 328 282 331 260 254 328 424 429 420 291 54 0 0 0 0 0 0 0 0 0 0 0 0 0 0 0 0 0
966 1119 1253 1258 1302 1374 1426 1482 1513 1529 1611 1704 1850 1988 2172 2308 2393 2441 2464 2522 2554 2565 2548 2512 2468 2385 2346 2370 2428 2448 2457 2412 2420 2394 2402 2282 2248 2197 2181 2092 1856 1408 910 595 273 105 151 248 375 506 613 671 686 662 575 492 376 386 374 364 347 358 326 263 277 275 178 39 1 0 0 0 0 0 0 0 0 0 0 0 0 0 0 0 0
1070 1039 1229 1361 1402 1414 1458 1505 1525 1535 1559 1625 1719 1840 1962 2109 2272 2374 2442 2479 2496 2531 2529 2542 2525 2495 2388 2389 2367 2361 2332 2306 2319 2246 2232 2197 2112 2053 2015 2040 2054 1896 1562 1158 809 559 266 382 392 422 467 595 682 757 764 669 573 491 430 381 376 387 392 348 182 163 222 213 230 157 28 8 0 0 0 0 0 0 0 0 0 0 0 0 0
1256 1205 1168 1336 1510 1533 1532 1535 1544 1567 1552 1560 1675 1771 1868 1985 2153 2281 2382 2448 2488 2506 2525 2518 2504 2509 2423 2422 2393 2361 2309 2272 2252 2216 2156 2119 2062 1986 1915 1860 1866 1832 1747 1550 1297 1135 901 645 467 355 327 320 324 575 670 692 664 579 510 445 401 352 335 332 303 199 108 143 150 62 82 118 76 32 1 0 0 0 0 0 0 0 0 0 0
1241 1297 1324 1286 1398 1562 1624 1626 1650 1656 1623 1606 1630 1734 1839 1968 2059 2124 2255 2359 2424 2470 2498 2514 2485 2491 2516 2471 2422 2410 2358 2312 2265 2243 2186 2134 2060 1982 1889 1820 1778 1745 1691 1601 1470 1350 1256 1132 1019 916 778 701 587 476 436 484 516 525 502 468 438 403 370 297 277 280 276 157 231 162 46 8 6 12 0 0 0 0 0 0 0 0 0 0 0
1220 1282 1364 1387 1377 1440 1576 1667 1722 1743 1731 1703 1676 1696 1783 1966 2042 2104 2150 2235 2336 2407 2453 2461 2477 2492 2535 2518 2497 2413 2385 2336 2308 2282 2247 2178 2083 1957 1840 1740 1658 1593 1553 1476 1393 1322 1247 1169 1054 936 874 796 695 648 581 550 567 617 603 593 574 543 483 437 409 362 334 268 166 93 150 144 198 235 190 164 82 0 0 0 0 0 0 0 0
1159 1270 1336 1463 1528 1514 1541 1628 1687 1727 1771 1812 1748 1676 1669 1863 1974 2035 2076 2136 2196 2288 2334 2393 2438 2471 2484 2498 2502 2362 2365 2367 2375 2367 2354 2328 2280 2192 2070 1928 1778 1674 1565 1449 1355 1252 1168 1101 1022 915 841 742 700 646 614 603 579 611 620 612 651 693 652 600 537 447 399 394 354 285 276 181 67 211 255 182 116 161 111 18 0 0 0 0 0
1199 1196 1197 1246 1474 1632 1686 1710 1728 1736 1764 1765 1708 1736 1766 1764 1820 1978 2046 2113 2151 2241 2275 2287 2330 2396 2447 2480 2549 2422 2350 2384 2406 2418 2416 2404 2361 2325 2279 2216 2113 2006 1874 1719 1598 1456 1304 1222 1138 1056 991 916 839 792 717 687 640 649 670 658 672 726 760 752 730 713 519 465 491 532 640 594 444 337 225 193 138 118 70 120 0 0 0 0 0
1274 1250 1254 1232 1227 1354 1568 1739 1808 1832 1875 1721 1719 1728 1746 1789 1816 1905 2032 2051 2100 2149 2209 2296 2304 2356 2397 2394 2421 2468 2514 2477 2355 2370 2382 2394 2400 2383 2361 2335 2297 2247 2163 2045 1924 1786 1655 1511 1412 1309 1226 1157 1107 1056 1007 948 877 824 793 776 762 793 828 845 846 883 950 936 938 904 831 732 628 627 538 303 168 129 96 33 0 0 0 0 0
1354 1350 1339 1298 1281 1245 1224 1373 1566 1770 1912 1796 1808 1836 1840 1831 1825 1828 1850 2032 2108 2125 2190 2209 2265 2322 2364 2367 2454 2492 2512 2262 2296 2339 2507 2354 2338 2347 2347 2350 2347 2335 2347 2303 2246 2128 1972 1879 1714 1699 1662 1534 1462 1419 1434 1502 1511 1484 1417 1368 1306 1268 1311 1344 1442 1488 1525 1343 1201 1167 1228 1214 1069 946 830 739 454 184 74 1 0 0 0 0 0
1481 1468 1437 1414 1376 1352 1303 1243 1203 1319 1506 1606 1734 1834 1903 1934 1958 1952 1922 1910 2099 2146 2191 2251 2286 2332 2393 2413 2454 2480 2536 2513 2456 2458 2474 2550 2553 2405 2361 2340 2318 2334 2354 2361 2332 2281 2209 2093 2010 1919 1996 2121 2229 2297 2348 2312 2238 2162 2064 1980 1922 1818 1696 1658 1643 1688 1742 1664 1472 1327 1358 1348 1188 1093 991 901 782 650 362 122 0 0 0 0 0
1613 1599 1565 1530 1498 1464 1409 1346 1296 1252 1196 1166 1305 1524 1700 1819 1905 1958 2018 1992 1950 2138 2236 2281 2327 2358 2400 2458 2489 2565 2569 2597 2567 2524 2563 2557 2532 2515 2462 2350 2305 2303 2327 2327 2295 2250 2159 2178 2320 2487 2670 2764 2807 2778 2726 2646 2572 2514 2502 1938 1827 1561 1555 1560 1492 1637 1546 1410 1282 1280 1237 1326 1237 1249 1294 1316 1224 1065 1010 772 501 131 0 0 0
1895 1929 1929 1821 1659 1541 1497 1460 1430 1381 1322 1264 1220 1196 1330 1521 1658 1764 1850 1917 1921 1963 2117 2203 2293 2377 2412 2458 2502 2531 2588 2619 2469 2394 2417 2455 2573 2468 2442 2428 2335 2313 2384 2396 2359 2349 2364 2529 2690 2847 2950 3003 2978 2948 2884 2722 2662 2319 2125 1740 1689 1600 1809 1721 1726 1651 1588 1479 1452 1359 1343 1358 1153 1090 1137 1168 1190 1183 1137 1125 1099 802 403 0 0
2257 2256 2249 2196 2103 1995 1859 1687 1560 1482 1414 1376 1345 1304 1259 1212 1380 1539 1658 1741 1768 1813 1849 2042 2153 2238 2309 2396 2444 2522 2605 2614 2420 2395 2431 2445 2434 2442 2467 2430 2427 2397 2445 2448 2352 2488 2577 2706 2834 2951 3002 3034 3045 3061 3043 2922 2840 2335 2114 1704 1819 1777 1974 2111 2135 1947 1544 1348 1186 1230 1205 1362 1414 1341 1328 1348 1281 1311 1219 1074 1093 1146 954 681 331
2526 2518 2490 2461 2416 2344 2242 2138 1987 1806 1651 1489 1429 1408 1379 1341 1312 1323 1412 1480 1548 1583 1691 1878 2029 2148 2239 2062 2206 2483 2531 2568 2374 2377 2411 2448 2487 2497 2478 2487 2400 2399 2389 2514 2624 2664 2687 2794 2900 2942 2913 2882 2862 2832 2706 2506 2192 2070 1917 2055 2018 1952 1818 1824 1674 1857 2034 1949 1822 1959 2111 2021 1855 1748 1660 1610 1664 1635 1633 1489 1288 1079 986 982 690
2786 2801 2811 2807 2762 2704 2625 2512 2384 2260 2119 1961 1795 1606 1470 1434 1406 1382 1356 1377 1404 1428 1585 1761 1884 2020 2135 2084 2031 2089 2336 2413 2329 2357 2400 2434 2465 2437 2397 2489 2496 2550 2644 2740 2787 2786 2768 2811 2870 2774 2739 2697 2689 2592 2485 2451 2309 2201 2199 2305 2401 2316 2405 2403 2459 2695 2784 2773 2654 2366 2260 2138 1908 2013 1929 1641 1550 1727 1715 1593 1476 1401 1212 909 699
Wind_Speed
8 8 7 8 8 8 8 9 9 10 9 9 8 8 8 7 7 7 8 8 8 8 10 11 11 12 12 13 15 15 15 14 15 15 16 16 17 17 18 12 21 13 16 13 14 16 12 12 13 12 12 12 12 12 13 13 13 14 13 13 15 12 12 11 11 11 10 9 8 9 9 10 10 10 11 12 13 15 16 15 16 17 16 16 16
9 8 8 10 10 9 10 10 10 11 10 12 10 8 9 8 8 7 7 8 8 9 9 11 11 10 10 12 14 15 14 14 14 15 15 16 16 17 17 15 17 17 11 14 16 16 14 13 13 13 13 13 13 13 13 13 13 13 13 13 13 11 11 10 10 9 9 8 8 8 9 9 10 10 12 13 14 15 16 16 15 15 14 15 15
10 10 10 11 10 10 11 10 11 11 11 13 11 11 9 9 8 7 7 8 9 9 9 10 11 11 9 11 12 12 12 12 13 13 14 15 15 15 17 16 17 17 10 17 19 15 16 13 12 13 13 14 14 14 14 14 14 13 13 13 12 11 10 9 9 9 8 8 9 9 9 10 11 11 12 13 14 14 14 14 14 14 13 14 14
12 11 11 10 10 10 11 11 12 11 12 13 13 12 11 10 9 9 8 9 10 10 9 9 12 12 9 9 9 9 9 10 11 12 13 13 13 14 14 13 16 15 13 17 17 16 14 11 13 15 14 14 14 15 14 14 14 14 13 12 11 10 9 9 8 9 8 8 9 9 9 11 11 12 12 12 13 13 13 14 14 14 14 13 13
13 12 12 11 11 11 13 15 14 13 14 13 13 13 12 10 9 8 9 10 12 11 9 9 11 12 10 8 8 7 8 8 8 9 11 12 12 11 12 12 13 15 14 17 16 16 14 14 14 15 15 14 15 15 15 14 14 14 13 12 12 11 10 10 9 9 8 8 8 8 9 10 10 9 10 11 13 13 13 13 13 12 13 13 14
13 13 12 12 13 15 17 18 17 16 15 14 14 13 13 11 10 9 11 12 13 11 9 9 12 10 9 8 7 7 7 6 7 8 9 11 10 9 9 10 10 11 13 17 17 15 16 14 14 16 16 15 15 15 15 15 14 14 14 13 13 12 11 11 10 10 9 9 9 6 8 8 8 8 10 11 13 12 13 12 12 13 14 14 16
13 13 14 14 16 18 20 21 19 17 17 16 15 14 13 12 11 10 13 13 13 11 10 11 12 9 8 7 7 6 6 6 6 7 8 9 8 8 8 9 9 10 11 12 14 14 14 15 14 14 14 16 16 16 16 16 15 15 16 16 15 14 14 13 12 12 10 10 8 6 8 8 7 9 10 12 12 12 11 11 12 14 14 15 16
14 13 15 17 18 20 22 21 20 18 17 16 15 15 14 12 11 12 13 14 14 13 13 13 12 9 8 7 7 6 6 6 6 7 8 8 8 7 8 9 9 10 12 11 11 12 14 15 14 15 15 15 16 16 17 18 18 16 14 16 15 14 13 12 12 9 10 11 8 8 9 9 9 9 11 11 11 10 10 11 12 12 15 15 16
13 13 16 18 20 21 21 20 19 17 16 15 15 14 13 12 10 10 11 14 13 13 14 13 12 nan 9 7 7 6 6 7 8 7 8 8 8 8 8 9 10 12 11 11 11 11 12 15 14 15 16 16 16 16 17 18 19 15 16 16 14 14 12 10 10 10 11 11 11 9 9 9 9 11 11 9 8 8 9 10 11 13 14 14 15
13 13 16 18 18 19 18 18 17 15 15 15 15 14 13 12 10 10 10 12 12 12 14 12 nan nan 10 8 7 7 8 8 8 7 8 9 9 9 11 11 12 12 10 10 10 11 11 13 14 16 16 16 16 17 18 19 19 16 18 16 17 17 14 13 13 13 11 9 9 9 8 9 10 9 8 7 7 8 9 10 11 11 11 12 13
12 12 14 16 16 16 16 16 15 14 14 16 15 16 16 14 12 11 11 13 12 13 11 nan nan 9 9 10 9 9 10 9 8 8 9 10 11 11 11 12 12 13 12 11 11 11 11 12 12 12 14 16 17 18 19 19 18 16 19 20 18 18 17 16 15 14 12 11 10 8 8 8 8 8 6 6 6 7 7 8 9 9 10 12 13
11 11 12 13 13 14 13 13 12 12 14 16 18 18 19 18 16 15 14 13 11 12 nan nan nan nan 9 10 10 11 10 9 10 11 12 12 13 12 12 12 12 13 13 13 12 12 12 12 13 13 13 15 17 17 18 17 16 16 17 18 20 19 18 18 17 16 14 12 9 8 8 7 6 6 5 5 5 6 8 8 8 10 12 13 14
11 9 10 11 11 10 10 10 10 11 13 17 18 18 17 17 16 16 16 15 15 nan nan nan nan nan nan nan nan 13 11 11 12 14 14 14 13 13 12 12 13 13 12 13 14 14 13 12 12 12 13 13 14 16 17 17 17 17 17 18 18 19 20 20 19 18 16 13 13 10 8 7 6 5 5 5 5 7 7 8 10 12 13 14 15
10 8 8 8 8 8 7 8 9 10 13 14 16 18 17 16 17 17 16 16 16 nan nan nan nan nan nan nan nan nan 12 nan 14 15 14 13 13 12 11 11 12 12 11 11 12 13 13 13 14 14 13 12 13 13 14 15 16 16 18 18 18 19 20 19 21 19 18 18 14 11 9 7 5 5 4 6 7 8 8 10 12 13 14 15 16
9 8 7 7 6 5 6 6 7 9 10 13 16 18 18 18 18 18 17 15 16 17 nan nan nan nan nan nan nan nan 15 nan nan nan nan 13 12 11 10 10 11 10 10 10 12 13 13 13 14 14 14 14 13 13 14 15 16 18 18 17 16 15 16 19 19 20 19 17 13 10 7 5 4 5 6 8 8 8 10 11 12 13 14 16 18
8 8 8 6 5 5 5 6 7 9 10 11 14 17 17 17 17 17 15 15 15 nan 15 nan nan nan nan nan nan nan nan nan nan nan nan nan 10 9 8 9 10 9 9 11 12 12 12 12 14 14 14 14 14 14 14 15 16 17 16 16 17 15 14 14 15 16 16 14 14 11 8 7 7 7 8 9 9 10 11 12 13 14 15 16 18
8 7 7 6 5 4 5 7 7 9 9 11 12 15 16 16 16 15 15 14 16 14 15 nan nan 13 nan nan nan nan nan nan nan nan nan nan 8 8 9 10 10 10 10 11 11 12 12 12 13 13 13 13 13 13 13 13 13 13 12 10 10 17 16 14 15 15 14 14 12 11 11 11 10 10 9 10 11 11 12 13 14 15 16 17 18
8 8 7 6 4 4 5 6 8 8 10 11 11 11 13 13 15 15 14 14 13 12 nan 13 nan 13 nan nan nan nan nan nan nan nan nan 9 nan 9 10 11 10 12 11 11 11 10 10 11 11 11 11 11 11 11 10 10 10 10 10 9 9 12 15 15 14 14 14 14 13 13 14 13 12 11 11 11 12 13 14 14 15 15 17 18 20
8 7 6 6 4 3 4 6 6 8 9 9 10 12 12 12 11 12 13 11 10 11 nan nan nan 14 14 13 12 12 nan nan nan nan nan nan nan nan 11 11 11 12 11 11 10 10 8 8 8 7 7 8 9 8 8 8 9 10 11 11 11 12 15 15 14 13 14 14 14 15 15 15 14 13 13 13 13 14 14 14 15 17 18 20 22
7 6 6 5 4 3 3 4 5 6 7 9 11 11 10 10 10 11 10 11 11 11 13 nan nan nan 13 14 10 nan nan nan nan nan nan nan nan nan nan nan 10 11 11 10 9 9 8 7 7 6 6 6 7 7 7 7 8 8 8 9 12 13 15 14 14 14 15 15 16 16 16 16 16 16 15 15 nan 14 15 15 16 18 20 21 22
6 5 5 5 4 4 3 4 4 5 7 8 9 10 11 10 9 9 10 10 11 10 8 11 nan nan nan nan nan nan nan nan nan nan nan nan nan nan nan nan nan nan nan 9 8 8 8 7 6 6 6 7 7 7 7 6 7 8 9 11 12 13 14 15 15 16 18 18 17 17 18 18 18 18 18 18 17 17 17 18 19 20 21 22 23
6 6 6 5 5 4 3 4 5 5 6 8 8 9 10 11 11 11 9 10 10 10 11 9 10 10 nan nan nan nan nan nan nan nan nan nan nan nan nan nan 10 10 nan 9 9 8 7 7 7 7 7 7 7 8 7 8 8 8 10 12 14 15 16 16 17 19 20 20 19 19 20 20 21 21 21 21 21 21 21 21 21 22 22 23 24
7 8 7 6 6 4 4 5 5 6 7 7 9 10 10 11 11 10 10 11 10 10 10 8 7 8 9 nan nan nan nan nan nan nan nan nan nan nan nan nan nan 11 8 nan 8 8 8 8 8 8 8 9 8 9 9 10 11 12 14 15 16 17 17 18 19 21 22 21 22 22 22 22 23 23 23 23 22 22 22 22 22 23 24 25 26
8 9 9 8 7 7 7 6 8 9 10 10 10 11 11 10 10 10 11 11 9 8 9 10 9 7 8 7 nan nan nan nan nan nan nan nan nan nan nan nan nan nan nan nan nan nan 9 10 10 10 10 9 10 10 11 11 12 16 15 16 18 19 20 21 21 23 23 22 22 23 23 23 24 24 24 24 23 23 23 23 24 25 26 27 27
8 9 10 8 8 9 10 10 11 12 13 13 13 13 12 12 13 12 12 12 11 10 9 10 9 9 9 7 8 nan nan nan nan nan nan nan nan nan nan nan nan nan nan nan nan nan nan 11 11 11 11 11 11 11 12 12 13 15 18 16 19 20 22 22 23 23 24 24 24 24 24 24 24 23 23 23 23 23 24 26 27 27 28 28 29
7 8 9 8 10 11 11 12 12 12 12 13 13 13 14 14 14 15 16 15 13 14 14 12 10 10 7 7 7 nan nan nan nan nan nan nan nan nan nan nan nan nan nan nan nan nan nan nan 11 11 12 13 13 12 12 13 14 17 20 18 19 22 22 23 24 24 24 25 25 25 25 24 25 25 26 26 26 27 27 28 29 28 28 29 30
6 8 7 8 10 10 11 11 10 10 9 9 9 9 10 11 12 14 15 13 15 14 15 15 14 14 12 11 9 7 nan nan nan nan nan nan nan nan nan nan nan nan nan nan nan nan nan nan 10 13 15 14 14 14 14 14 16 18 20 19 18 22 23 24 24 25 25 25 25 25 25 25 24 24 25 26 27 28 29 30 30 30 30 30 32
8 8 8 7 8 8 8 9 7 6 6 6 6 6 6 7 7 8 10 8 11 13 13 13 14 14 14 12 9 9 7 5 nan nan nan nan nan nan nan nan nan nan nan nan nan nan nan nan nan 13 14 15 15 15 15 17 16 21 22 18 18 19 23 25 25 25 25 25 25 25 25 25 25 26 27 28 29 30 30 31 32 32 32 32 34
8 9 8 8 7 6 6 5 4 3 3 3 4 4 5 5 6 6 6 6 7 9 8 10 10 10 10 12 12 11 9 5 4 nan nan nan nan nan nan nan nan nan nan nan nan nan nan nan nan 10 14 16 16 15 16 17 19 20 18 19 19 20 22 25 25 25 25 26 26 26 25 25 26 27 28 30 30 31 32 32 33 34 34 34 35
8 9 8 7 6 4 3 2 1 0 2 2 4 4 5 6 6 6 5 6 6 5 5 6 7 7 8 8 9 10 8 6 5 3 3 nan nan nan nan nan nan 9 8 8 9 nan 9 nan nan 12 nan 15 15 16 17 18 20 22 19 20 20 21 24 25 nan nan 26 27 27 27 27 nan nan nan nan 30 31 32 32 33 34 34 35 36 36
9 8 8 7 5 3 2 2 2 2 3 3 4 5 5 5 5 4 5 6 6 5 5 5 5 6 6 8 8 9 8 6 4 2 2 1 nan nan nan nan nan nan nan nan nan 7 nan 10 nan nan nan nan nan 16 16 17 19 22 20 20 20 24 25 23 nan nan nan nan nan nan nan nan nan nan nan nan nan nan 34 34 35 35 36 36 37
9 7 7 6 5 4 5 4 4 4 4 3 4 4 4 4 4 4 4 5 5 5 4 4 4 5 5 6 8 9 8 6 4 2 1 1 1 nan nan nan nan nan nan nan nan 15 nan nan 11 nan nan nan nan 16 17 16 17 23 20 20 20 20 20 20 25 nan nan nan nan nan nan nan nan nan nan nan nan nan 35 36 36 37 38 38 39
9 7 5 5 5 5 5 6 6 5 4 3 4 4 3 3 3 3 3 4 4 3 3 3 4 4 5 6 7 8 7 7 5 2 0 1 1 2 nan nan nan nan nan nan nan 14 10 nan nan nan nan nan nan 16 17 16 17 18 20 20 20 20 20 20 21 25 nan nan nan nan nan nan nan nan nan nan nan nan nan 37 37 38 39 40 41
10 8 6 7 6 6 7 7 6 6 5 5 5 6 4 3 2 3 3 4 4 3 4 3 3 3 4 5 6 6 7 6 4 3 2 1 1 2 3 nan nan nan nan nan nan nan 15 nan nan 8 nan nan 11 12 17 17 17 17 19 19 18 20 19 20 20 21 26 nan nan nan nan nan nan nan nan nan nan nan nan nan nan nan nan nan nan
12 10 8 7 7 7 7 7 7 6 6 7 8 7 6 5 4 4 3 4 4 4 4 4 3 3 4 5 5 4 3 4 4 4 2 3 2 3 5 4 6 6 nan nan 9 11 13 13 10 10 11 11 14 13 14 13 14 15 16 18 18 18 18 19 20 21 24 nan nan nan nan nan nan nan nan nan nan nan nan nan nan nan nan nan nan
13 11 9 8 8 7 7 7 7 7 8 9 10 9 7 7 5 5 6 5 4 4 4 4 4 4 4 3 4 2 2 3 4 4 4 3 3 4 5 5 6 8 7 nan nan 12 10 11 10 12 10 12 12 12 11 11 12 14 16 15 16 17 18 19 20 21 23 nan nan nan nan nan nan nan nan nan nan nan nan nan nan nan nan nan nan
12 12 11 10 9 7 7 7 8 8 8 10 10 10 9 8 7 7 6 6 6 5 5 3 3 4 3 3 3 1 2 3 5 5 4 5 5 5 7 6 6 7 7 9 11 10 11 13 12 11 12 12 12 12 15 15 15 15 16 18 19 19 18 19 19 20 22 nan nan nan nan nan nan nan nan nan nan nan nan nan nan nan nan nan nan
14 13 12 12 10 8 8 8 8 8 9 10 10 9 10 9 8 8 8 8 7 6 5 4 2 2 1 2 2 2 0 3 6 7 6 8 6 8 9 8 8 7 9 10 10 11 11 12 11 11 13 14 13 15 19 20 18 17 19 22 22 23 23 21 22 22 22 22 24 25 nan nan nan nan nan nan nan nan nan nan nan nan nan nan nan
15 15 14 12 11 10 9 9 8 8 8 9 10 9 9 9 9 8 8 8 8 8 6 3 2 2 3 3 3 2 3 4 7 8 7 7 6 8 9 8 9 10 11 11 11 12 12 12 11 12 13 15 17 15 19 23 22 22 22 22 24 27 28 28 24 25 25 24 25 nan nan 28 nan nan nan nan nan nan nan nan nan nan nan nan nan
15 13 14 12 11 12 10 8 7 8 8 9 9 9 9 9 9 9 8 8 8 7 6 5 5 5 5 5 4 4 5 6 7 7 5 6 5 8 8 10 11 14 14 13 13 14 14 15 15 15 16 16 19 21 21 24 23 24 29 29 25 24 28 30 29 26 27 27 25 25 nan nan nan nan nan nan nan nan nan nan nan nan nan nan nan
17 16 14 14 13 12 10 8 7 8 8 8 9 9 9 9 9 9 9 8 7 7 6 7 7 7 8 7 6 6 7 9 10 9 7 7 6 8 10 13 15 16 16 15 16 15 15 15 15 16 17 18 20 21 23 26 28 28 27 32 28 25 24 25 27 30 29 30 29 nan 29 33 30 30 32 33 nan nan nan nan nan nan nan nan nan
18 17 16 14 14 12 8 7 7 8 8 9 9 10 9 8 9 9 8 7 6 6 7 9 9 9 9 8 7 8 9 9 9 10 11 11 13 11 10 13 15 16 17 17 17 18 17 17 18 17 17 18 20 23 23 25 26 26 27 30 28 26 26 25 25 30 33 34 32 30 32 36 nan 32 34 34 35 40 41 nan nan nan nan nan nan
17 17 16 13 13 12 9 8 8 8 9 9 8 10 9 9 8 8 7 8 8 7 7 8 9 9 9 7 7 6 6 6 7 10 11 13 14 15 17 17 18 18 18 18 18 18 18 18 18 18 19 17 18 21 22 23 26 29 29 30 29 28 27 25 20 26 34 36 35 33 29 38 42 36 35 35 36 39 nan 42 nan nan nan nan nan
17 16 14 12 11 11 10 9 8 9 9 7 8 9 9 9 7 7 9 9 9 8 8 7 7 7 7 6 4 4 2 3 3 6 9 12 14 15 17 17 19 22 22 20 18 18 20 18 18 20 20 19 18 21 23 26 26 28 32 33 34 33 30 27 25 21 27 35 34 31 27 33 43 41 38 38 40 41 nan nan nan nan nan nan nan
16 14 12 12 11 10 9 8 7 8 9 9 9 9 9 9 8 7 8 8 8 8 7 6 5 5 5 5 4 2 1 5 5 6 7 10 14 16 16 16 16 19 21 23 23 21 19 18 17 18 23 22 21 23 27 27 29 28 33 36 39 38 35 30 25 21 25 36 39 37 33 36 48 49 47 45 46 46 nan nan nan nan nan nan nan
14 12 12 10 10 9 9 8 8 9 9 8 10 9 8 9 9 10 9 7 7 6 5 5 6 5 4 3 3 2 2 4 6 8 10 10 11 14 15 15 14 15 19 23 24 24 23 21 21 20 22 28 26 24 25 30 31 33 36 39 43 42 40 35 29 27 33 49 52 49 41 41 50 48 45 41 45 44 45 47 nan nan nan nan nan
13 12 11 10 9 9 9 9 10 10 11 9 10 9 8 9 10 11 11 10 8 6 5 5 5 5 5 4 2 2 2 4 7 11 13 14 14 15 15 16 16 15 17 21 24 25 26 26 26 26 24 26 27 27 29 35 38 39 42 41 44 46 48 43 38 37 37 47 52 53 45 37 48 49 42 40 45 47 47 47 51 54 nan nan nan
14 14 14 12 9 9 9 10 10 8 12 11 11 10 10 10 12 14 13 11 8 7 6 5 5 7 6 5 4 4 2 4 7 13 15 16 16 15 14 16 15 14 17 21 24 27 29 30 31 31 30 31 35 36 39 43 43 43 45 47 48 54 53 47 40 34 32 40 54 55 47 40 46 52 44 46 53 50 51 54 56 56 56 nan nan
15 15 13 15 14 13 11 11 10 10 13 13 13 11 12 15 17 15 14 13 11 9 7 7 8 8 7 7 7 7 6 6 10 15 18 21 17 16 17 18 17 16 17 20 27 32 34 37 38 38 37 38 41 41 39 42 44 45 51 43 45 56 51 44 39 35 32 33 48 56 50 40 43 50 47 47 51 49 50 54 54 56 58 59 60
15 15 17 16 15 15 13 13 13 14 16 16 16 14 14 18 18 17 16 15 12 9 9 9 11 10 8 6 8 9 7 8 11 17 21 25 23 20 21 22 20 17 19 23 24 28 35 36 38 39 38 39 39 37 36 42 45 52 50 47 49 57 50 46 40 37 31 30 42 57 51 41 39 47 46 44 47 47 49 50 53 54 57 56 59
16 17 17 17 16 16 17 16 15 15 18 18 19 17 17 20 20 17 17 17 14 11 12 11 12 11 10 11 11 11 11 10 11 16 21 27 26 26 24 26 25 22 21 21 23 25 30 34 36 39 36 38 40 40 39 41 47 60 57 55 52 58 52 47 45 42 36 32 43 61 51 39 43 46 47 44 39 38 47 49 50 51 52 53 53
Wind_Direction
91 91 89 83 85 83 82 80 85 81 84 84 82 87 94 95 97 95 99 104 106 108 100 98 91 86 84 85 85 82 80 80 82 83 84 85 85 81 68 61 78 82 67 60 66 67 54 57 59 58 60 58 59 54 50 49 51 52 53 53 59 55 57 61 65 68 71 73 76 80 83 89 91 95 96 98 101 103 104 102 94 94 93 89 83
89 91 84 84 84 82 78 76 76 80 78 78 78 75 76 85 84 85 92 104 106 110 107 109 104 97 88 86 84 84 84 82 82 84 86 86 87 89 77 65 72 72 78 79 69 71 61 54 56 57 57 58 58 58 55 54 49 48 49 52 53 54 57 62 68 74 78 80 87 95 91 91 95 100 104 108 109 111 110 108 103 98 93 84 80
88 87 87 84 81 77 74 72 70 70 74 80 86 83 78 70 78 79 84 93 100 103 112 114 109 104 99 85 84 85 86 88 87 87 87 88 89 90 92 75 74 72 48 68 74 67 68 62 63 61 55 60 60 59 59 58 54 52 52 53 54 56 60 66 75 84 86 89 96 95 101 102 103 106 111 113 113 112 108 104 100 97 92 86 81
89 87 81 78 75 73 75 72 72 72 74 81 87 88 85 80 77 71 73 74 88 105 111 109 105 103 102 94 86 81 85 88 89 89 91 91 89 94 99 97 82 83 65 60 64 64 69 70 65 70 63 58 59 60 61 61 61 60 60 60 61 61 63 65 73 78 82 85 90 96 96 98 100 106 111 112 109 103 101 98 95 93 88 82 77
87 81 78 74 72 73 76 77 78 78 81 84 88 90 92 94 89 83 84 89 100 110 109 98 100 106 111 93 84 84 86 89 91 92 89 89 83 93 104 98 90 80 77 77 73 71 65 60 64 71 69 61 62 62 61 63 66 67 69 67 69 69 65 65 67 71 74 77 81 89 98 107 109 111 105 102 100 98 94 92 91 84 81 77 72
84 84 83 80 79 79 80 83 83 83 86 89 89 91 97 99 95 85 87 91 104 108 108 104 94 100 104 89 88 86 85 86 88 90 89 83 82 88 98 100 100 92 85 83 80 78 78 70 67 67 66 70 68 68 67 69 71 71 72 71 70 71 70 68 67 69 71 76 79 79 89 94 98 98 97 93 91 89 85 83 82 80 77 75 70
84 85 87 86 86 86 86 86 85 83 83 84 84 89 89 91 90 84 83 92 101 105 103 94 101 113 105 88 90 88 88 88 86 83 82 78 80 80 85 92 96 97 97 93 91 89 82 76 72 70 67 69 71 70 70 69 70 69 64 62 62 61 61 59 60 63 69 72 75 59 75 83 75 80 83 84 80 79 76 77 76 74 72 66 63
86 90 91 91 89 87 87 86 83 81 80 80 79 79 83 84 86 79 89 94 99 103 102 105 112 114 106 97 92 96 94 89 76 69 68 67 72 77 84 83 94 100 93 98 99 94 85 75 68 72 68 68 69 71 72 71 70 70 80 79 74 72 72 71 69 63 63 65 55 44 58 69 59 65 71 76 76 75 77 77 76 71 64 58 52
89 92 93 92 92 89 88 85 83 80 78 78 78 81 87 91 87 82 77 87 94 94 96 98 103 nan 102 96 101 94 94 80 72 71 59 64 62 71 78 83 90 89 94 96 99 97 97 82 71 67 68 67 70 69 69 71 72 65 69 66 67 71 62 55 48 47 54 56 47 40 49 57 58 62 68 74 82 86 81 74 63 59 51 42 34
92 94 94 96 94 92 90 86 83 81 78 77 78 83 84 85 86 87 81 79 84 88 87 89 nan nan 103 104 102 99 92 87 78 78 74 65 66 71 80 87 89 90 89 87 85 88 86 80 73 70 68 67 69 70 67 66 69 66 61 56 56 57 55 38 43 43 44 54 38 40 44 54 59 61 67 75 82 79 71 57 50 41 27 20 17
97 96 96 99 98 95 92 87 85 81 78 79 83 87 89 88 87 88 89 83 80 82 83 nan nan 98 96 96 90 94 93 92 101 96 89 86 83 82 85 85 83 81 80 75 71 70 74 75 77 75 71 69 67 67 66 65 65 57 54 54 52 49 47 40 39 38 38 45 41 37 53 62 62 67 76 77 71 57 42 26 25 25 19 14 10
101 102 101 102 100 96 93 93 89 85 79 79 83 85 84 90 91 84 86 90 97 90 nan nan nan nan 97 95 89 85 94 102 105 101 97 94 93 88 83 79 75 75 74 73 70 67 66 69 68 67 65 65 67 68 67 65 60 57 56 50 48 45 43 42 37 34 35 40 44 47 54 69 76 81 80 62 44 22 10 15 17 15 9 5 1
112 112 108 107 103 101 100 99 96 91 85 81 83 85 87 86 88 85 79 79 88 nan nan nan nan nan nan nan nan 103 100 102 101 99 97 95 93 90 83 75 70 67 68 73 74 71 69 70 70 68 66 65 68 67 63 59 55 53 53 53 50 45 42 39 39 38 36 41 47 46 57 64 70 73 63 48 15 359 1 5 7 7 4 359 356
121 122 124 110 106 101 96 98 95 98 94 95 93 93 89 86 85 83 84 80 77 nan nan nan nan nan nan nan nan nan 104 nan 98 99 99 97 94 88 80 69 63 62 63 69 75 74 71 70 72 71 67 63 60 60 59 56 54 53 51 52 51 45 41 37 38 33 35 41 43 47 57 58 46 36 15 350 352 355 0 3 3 1 358 353 350
127 132 130 117 102 94 92 106 105 105 100 93 93 92 90 84 79 78 78 75 76 77 nan nan nan nan nan nan nan nan 110 nan nan nan nan 104 100 91 78 68 63 59 65 71 74 74 72 71 70 68 65 61 56 54 53 53 52 51 48 47 52 52 43 35 35 34 35 36 37 42 42 26 21 14 360 358 357 360 359 2 1 357 355 352 350
134 139 137 125 105 90 102 103 98 97 91 88 89 89 91 90 87 82 79 75 75 nan 72 nan nan nan nan nan nan nan nan nan nan nan nan nan 108 100 82 71 68 71 75 80 80 75 73 71 67 63 60 58 56 53 51 48 50 54 54 47 37 34 34 37 35 31 32 34 34 30 20 18 13 14 8 3 2 0 2 360 358 358 354 353 351
144 139 139 126 121 109 95 95 93 92 95 91 88 86 86 90 89 86 80 73 74 71 78 nan nan 84 nan nan nan nan nan nan nan nan nan nan 104 88 82 72 77 83 88 87 83 78 75 69 64 59 56 53 51 50 48 46 43 42 45 52 45 17 21 27 33 31 28 32 28 0 11 13 13 9 7 6 7 7 4 3 360 359 356 355 356
151 143 139 144 126 107 93 91 88 90 88 88 91 96 91 89 87 86 85 87 75 77 nan 69 nan 67 nan nan nan nan nan nan nan nan nan 96 nan 90 82 85 85 89 87 87 83 79 73 72 65 61 56 50 45 43 42 38 35 32 30 30 47 21 12 19 31 33 29 31 26 22 21 21 16 14 12 11 10 8 7 4 1 359 1 1 359
152 143 135 134 133 112 86 86 89 86 88 87 86 85 87 86 91 86 84 85 82 73 nan nan nan 75 69 78 83 88 nan nan nan nan nan nan nan nan 88 85 85 83 83 81 80 79 70 61 58 51 45 49 44 37 33 30 34 31 30 26 24 20 8 13 23 32 31 33 28 28 27 24 21 21 19 18 16 12 9 6 3 4 5 8 7
152 140 132 130 132 111 89 85 81 83 82 78 77 83 90 95 85 87 89 81 73 68 67 nan nan nan 72 73 82 nan nan nan nan nan nan nan nan nan nan nan 87 80 75 74 70 67 70 58 50 44 36 31 27 27 24 25 22 22 19 17 18 19 7 14 24 33 37 37 32 29 27 25 23 24 25 23 nan 14 10 10 11 14 16 17 15
143 136 127 119 127 104 85 76 70 70 74 75 77 75 71 74 77 78 74 78 74 72 64 59 nan nan nan nan nan nan nan nan nan nan nan nan nan nan nan nan nan nan nan 62 59 50 48 46 42 43 31 30 22 21 15 10 18 20 21 19 24 31 30 23 29 37 38 38 35 31 31 30 29 28 28 27 23 21 22 25 26 26 25 22 19
135 130 126 122 116 118 104 77 67 61 65 61 62 65 69 68 68 67 65 65 73 66 64 60 57 62 nan nan nan nan nan nan nan nan nan nan nan nan nan nan 81 76 nan 53 50 46 41 36 37 38 36 31 24 21 18 21 20 25 30 38 40 44 46 36 32 37 38 37 35 37 37 37 37 36 35 34 33 33 33 33 30 27 23 19 16
138 127 121 120 116 116 105 89 80 71 62 52 53 57 62 64 67 67 65 58 61 60 68 64 60 59 60 nan nan nan nan nan nan nan nan nan nan nan nan nan nan 81 72 nan 50 43 34 28 32 35 28 32 27 24 25 30 38 42 49 49 48 48 45 42 36 37 39 36 40 41 43 45 43 41 40 38 37 36 33 30 26 22 19 19 20
136 130 124 123 120 111 102 92 80 73 67 63 59 58 61 63 64 64 67 67 65 59 62 62 55 58 60 58 nan nan nan nan nan nan nan nan nan nan nan nan nan nan nan nan nan nan 35 32 29 31 31 31 34 32 33 38 44 51 53 50 47 46 44 43 40 39 40 41 40 45 46 46 46 44 41 38 35 34 33 29 23 21 23 24 23
145 136 131 123 121 106 101 91 87 80 74 67 64 57 58 60 60 59 60 57 57 54 54 58 50 51 55 49 50 nan nan nan nan nan nan nan nan nan nan nan nan nan nan nan nan nan nan 42 34 31 33 36 39 39 40 42 45 46 50 49 46 46 46 44 43 43 43 43 44 44 45 44 44 42 37 31 26 23 27 26 24 23 24 24 19
155 127 135 129 119 107 100 93 86 80 74 68 64 60 57 59 59 60 59 60 57 52 55 54 52 52 47 46 41 nan nan nan nan nan nan nan nan nan nan nan nan nan nan nan nan nan nan nan 41 37 36 40 44 41 43 45 47 47 46 47 46 46 46 45 44 43 42 41 41 41 41 40 37 34 31 27 25 26 23 20 20 21 21 19 15
137 137 137 121 115 114 105 100 91 81 76 69 66 58 55 57 59 61 63 61 57 54 56 50 50 49 46 42 42 39 nan nan nan nan nan nan nan nan nan nan nan nan nan nan nan nan nan nan 40 39 39 41 42 42 41 43 47 47 46 45 45 43 43 43 42 40 39 38 37 37 35 34 32 29 28 28 27 25 22 20 19 18 17 14 12
154 154 140 135 124 117 117 106 100 88 73 59 49 43 36 36 45 49 56 57 53 48 51 46 49 44 45 44 43 50 34 35 nan nan nan nan nan nan nan nan nan nan nan nan nan nan nan nan nan 42 36 38 41 37 37 41 41 42 43 39 36 37 37 36 36 35 35 34 34 34 33 31 30 29 27 26 26 23 21 17 14 14 14 12 8
165 163 157 146 134 130 120 117 110 97 65 41 20 17 6 9 15 16 30 29 35 39 36 34 41 37 37 33 37 45 43 24 40 nan nan nan nan nan nan nan nan nan nan nan nan nan nan nan nan 50 30 33 37 31 30 33 34 31 28 29 28 27 29 29 28 29 29 29 30 30 31 30 29 27 25 25 23 22 20 18 15 11 11 7 5
175 174 161 157 152 139 134 135 148 190 23 355 348 344 346 10 4 3 353 340 5 16 20 21 27 17 29 31 28 38 30 24 44 56 44 nan nan nan nan nan nan 36 40 60 77 nan 42 nan nan 37 nan 30 29 29 26 28 26 25 22 21 21 21 26 25 nan nan 25 26 27 28 28 nan nan nan nan 22 21 20 19 18 15 11 8 5 2
183 181 178 178 183 185 187 229 266 313 323 334 323 348 349 360 3 360 354 349 346 352 354 356 4 353 10 27 18 28 12 20 28 64 87 43 nan nan nan nan nan nan nan nan nan 56 nan 39 nan nan nan nan nan 26 25 26 22 20 18 16 16 23 23 20 nan nan nan nan nan nan nan nan nan nan nan nan nan nan 15 15 14 12 9 6 3
183 189 187 193 211 231 239 260 284 289 302 303 308 326 347 356 347 2 345 350 3 7 336 334 335 344 1 16 16 17 360 355 12 8 18 70 32 nan nan nan nan nan nan nan nan 71 nan nan 45 nan nan nan nan 21 26 24 17 19 16 14 14 10 11 11 18 nan nan nan nan nan nan nan nan nan nan nan nan nan 12 10 12 10 9 6 3
198 199 200 208 235 258 274 285 294 304 309 295 290 292 333 346 344 351 342 345 7 10 316 332 333 347 360 15 15 11 345 5 19 3 70 56 43 44 nan nan nan nan nan nan nan 73 70 nan nan nan nan nan nan 16 23 19 14 8 10 11 7 6 5 4 5 13 nan nan nan nan nan nan nan nan nan nan nan nan nan 9 8 7 6 4 2
208 210 216 224 241 268 271 287 293 294 301 308 285 275 291 316 318 278 307 337 349 320 303 334 340 328 345 13 26 15 345 15 22 44 67 95 53 30 31 nan nan nan nan nan nan nan 79 nan nan 24 nan nan 28 1 13 14 16 358 2 0 357 359 360 359 357 0 11 nan nan nan nan nan nan nan nan nan nan nan nan nan nan nan nan nan nan
208 213 223 235 247 260 267 275 284 290 295 289 281 282 278 282 279 276 286 287 293 299 312 332 333 319 355 12 32 14 331 28 49 73 82 74 68 47 43 24 35 27 nan nan 23 47 57 70 33 45 28 9 12 23 9 10 8 350 354 355 357 354 354 357 355 355 6 nan nan nan nan nan nan nan nan nan nan nan nan nan nan nan nan nan nan
211 214 225 235 239 249 259 266 274 280 286 281 282 285 288 281 269 264 261 262 265 278 298 306 312 321 2 22 52 6 332 54 86 93 96 87 65 62 53 37 34 40 24 nan nan 38 44 59 39 19 17 8 14 10 1 354 356 351 348 347 349 358 357 353 355 354 359 nan nan nan nan nan nan nan nan nan nan nan nan nan nan nan nan nan nan
210 219 223 230 233 239 249 264 271 277 286 290 289 286 280 269 260 249 248 249 255 263 269 284 301 328 352 44 92 252 302 81 102 100 101 77 84 77 72 59 46 48 36 30 33 24 37 43 48 18 3 8 4 350 339 350 350 346 340 347 354 355 351 354 351 354 4 nan nan nan nan nan nan nan nan nan nan nan nan nan nan nan nan nan nan
212 218 224 229 233 238 245 258 270 279 286 291 297 291 279 268 255 243 236 240 246 250 256 265 277 283 47 92 133 203 219 74 98 102 98 83 79 70 64 61 53 41 40 34 22 21 22 40 37 41 13 12 9 353 337 341 350 347 343 346 351 351 347 350 352 345 342 344 341 346 nan nan nan nan nan nan nan nan nan nan nan nan nan nan nan
212 216 223 229 229 237 245 255 269 280 288 291 290 289 280 271 263 253 245 241 240 242 245 239 203 176 143 145 158 163 117 93 90 91 89 79 68 61 50 42 26 23 28 23 15 17 20 28 27 17 22 4 352 9 339 336 347 346 346 353 1 346 341 347 352 342 339 345 352 nan nan 346 nan nan nan nan nan nan nan nan nan nan nan nan nan
209 215 223 229 231 239 247 256 267 275 284 283 285 285 281 276 267 259 255 247 241 237 227 206 183 154 141 146 146 140 119 108 90 90 69 65 46 46 29 12 9 11 15 12 8 9 14 19 15 22 11 9 348 348 340 338 345 349 346 352 6 359 344 341 345 343 335 334 339 341 nan nan nan nan nan nan nan nan nan nan nan nan nan nan nan
209 215 221 227 235 241 246 255 265 274 280 284 280 282 284 283 271 263 260 252 244 226 200 182 168 153 149 152 147 133 108 91 77 73 60 43 32 35 24 356 5 5 6 4 3 358 5 9 12 8 7 0 352 346 347 344 349 2 348 341 354 351 343 338 341 335 333 331 332 nan 335 332 332 331 328 327 nan nan nan nan nan nan nan nan nan
212 218 223 229 234 241 248 258 261 263 271 271 288 320 307 284 272 261 255 247 234 205 178 170 160 154 151 153 145 108 93 78 66 54 46 39 35 30 29 355 360 357 358 356 353 353 354 359 1 359 0 4 349 346 349 348 347 345 343 338 343 339 329 337 338 331 327 327 331 334 333 323 nan 323 321 326 322 323 323 nan nan nan nan nan nan
215 222 228 232 236 239 248 254 261 262 264 269 314 314 324 323 284 261 250 236 225 201 185 166 155 159 165 163 163 125 94 79 57 42 31 27 27 30 33 27 9 358 350 349 349 346 346 350 352 348 351 3 352 343 346 343 337 340 339 332 332 325 328 327 334 319 323 327 323 324 327 318 314 319 321 322 321 319 nan 323 nan nan nan nan nan
217 224 229 234 238 242 244 250 257 261 264 287 314 317 320 323 303 261 239 231 220 207 197 185 171 180 171 174 176 175 164 54 6 360 6 14 15 18 23 23 19 16 7 357 352 345 341 343 343 346 341 350 354 341 337 333 340 336 329 327 324 322 320 318 316 325 314 313 315 313 320 317 314 319 324 325 322 321 nan nan nan nan nan nan nan
221 225 228 233 236 242 249 255 255 263 261 286 311 317 316 317 317 285 234 226 220 212 209 199 189 182 184 176 178 186 210 29 3 336 329 334 345 5 10 14 19 14 9 7 1 354 345 344 353 354 343 343 353 348 333 331 329 332 326 323 319 318 315 311 318 330 327 319 312 312 322 328 320 324 332 334 323 324 nan nan nan nan nan nan nan
223 224 228 232 233 239 248 254 253 255 263 285 306 313 311 310 307 285 237 229 223 218 213 210 218 220 213 192 169 174 262 312 313 311 310 313 312 315 323 326 333 358 2 2 358 0 355 348 350 360 348 337 351 350 333 323 326 331 329 324 314 310 309 309 311 329 340 325 326 322 328 337 327 332 342 341 327 327 330 333 nan nan nan nan nan
228 230 233 234 233 239 245 252 251 257 261 293 296 307 307 305 301 280 243 238 235 232 231 228 232 236 235 227 204 210 255 302 303 308 303 303 304 306 311 315 322 329 332 333 331 331 331 336 353 360 359 345 349 353 340 328 334 335 331 320 303 301 306 317 330 341 344 331 327 323 336 342 324 332 340 335 323 326 329 330 333 334 nan nan nan
224 227 227 231 237 243 248 253 255 260 260 289 298 300 301 292 291 260 248 246 249 247 244 247 248 248 246 245 239 241 258 293 308 320 314 301 301 312 320 313 317 328 328 326 335 337 336 338 345 348 346 347 349 350 342 334 335 333 314 307 314 315 324 339 348 348 345 329 323 325 329 340 331 323 333 329 321 325 327 325 328 333 333 nan nan
231 234 236 239 239 243 251 256 262 257 256 275 289 291 286 286 270 251 249 246 248 249 247 251 250 251 253 260 262 254 264 279 297 309 312 308 308 318 314 314 317 321 320 314 331 343 346 352 357 352 349 352 354 358 352 341 339 323 308 320 330 321 331 343 349 344 346 335 318 320 324 337 332 321 324 323 318 322 323 321 320 326 331 333 334
239 242 243 242 243 246 255 261 262 255 253 263 278 278 282 284 278 258 251 252 250 250 244 247 249 247 255 291 282 273 273 277 293 306 308 306 302 313 311 309 314 319 312 310 318 329 338 345 348 348 348 349 351 355 353 345 344 317 323 337 335 320 333 341 343 337 339 337 323 316 317 333 325 316 317 313 307 314 317 317 317 319 325 328 332
243 245 247 246 247 247 251 256 266 265 255 260 277 282 285 285 278 257 258 256 254 254 251 248 251 250 252 267 290 288 280 279 293 299 308 303 302 306 313 307 309 312 316 319 326 328 321 320 325 326 334 340 341 343 346 350 339 327 332 337 333 328 338 343 339 335 337 344 327 317 318 327 318 317 315 310 314 317 313 313 315 314 313 315 319